SES-1

Last updated on Sat Aug 22 2026 00:02:57 GMT+0000 (Coordinated Universal Time)

1 36516U 10016A 26233.46224112 -.00000116 00000+0 00000+0 0 9994 2 36516 0.0600 280.9671 0002499 227.2896 246.9298 1.00272367 59688
UTC large
Height (km)
Speed (km/s)
/
Latitude / Longitude
Inclination (degrees)
Orbital Period (minutes)
Azimuth
Elevation
Range (km)
Doppler Factor

Next 0 passes for location: London (51.5072 / 0.1276)

No passes found over London.
SES-1